Погода в Сивомаскинском

Россия / Республика Коми     66°40′21″N   62°34′14″E
темп.,
°C
ветер,
м/с
пор.,
м/с
влажн.,
%
обл.,
%
осадки,
мм/ч
давл.,
гПа
погр.,
м
16 мая, пн
пн1600:00+6юз3594100 0.2 994147
03:00+6ююз359594 0.3 994187
06:00+5юз35100100 0.0 995235
09:00+6юз3497100 0.0 995391
12:00+5зюз4594100 0.1 996406
15:00+7юз4687100 0.1 996572
18:00+6зюз4688100 0.1 996404
21:00+3зюз5797100 0.2 997530
17 мая, вт
вт1700:00+2зюз4699100 1.1 997340
03:00+1з4699100 2.5 997202
06:00+1зсз4599100 0.7 998213
09:00+2сз4592100 0.9 999573
12:00+3зсз5688100 0.1 1000672
15:00+3зсз6869100 0.2 10011073
18:00+2зсз5883100 0.0 1002689
21:000зсз5983100 0.1 1003716
18 мая, ср
ср1800:00−1з599497 0.1 1004587
03:00−1зсз589087 0.2 1004635
06:000зсз5775100 0.1 10051025
09:00+1зсз4666100 0.2 10071141
12:00+2зсз456298 0.0 1008940
15:00+4сз3447100 0.1 10081463
18:00+4ссз335076 0.0 10081239
21:00+1ссв3566100 0.0 100898
19 мая, чт
чт1900:000ссв3466100 0.0 100771
03:000св4770100 0.0 1007291
06:00+2св675994 0.0 1006586
09:00+5св55505 0.0 1005941
12:00+8ссв444670 0.0 10041421
15:00+9ссв664588 0.0 10031651
18:00+7с674799 0.0 10041219
21:00+3с8136772 0.0 1004424
20 мая, пт
пт2000:00+1с71276100 0.0 1004380
03:00+1с71268100 0.0 1004483
06:00+2с81162100 0.0 1005689
09:00+4с7955100 0.0 1005974
12:00+5с6746100 0.0 10051161
15:00+5с6747100 0.0 10051197
18:00+4ссз5656100 0.0 1006980
21:00+2ссз5769100 0.0 1006590